Tracking 30970 objects as of 3-Jul-2025
HD Live streaming from Space Station
objects crossing your sky now

STARLINK-5674

Track STARLINK-5674 now!
10-day predictions
STARLINK-5674 is classified as:


NORAD ID: 55465
Int'l Code: 2023-015S
Perigee: 565.3 km
Apogee: 567.2 km
Inclination: 43.0 °
Period: 95.8 minutes
Semi major axis: 6937 km
RCS: Unknown
Launch date: February 2, 2023
Source: United States (US)
Launch site: AIR FORCE EASTERN TEST RANGE (AFETR)
Your satellite tracking list
METEOR 2-6
Track 1 satellite(s)




NASA's NSSDC Master Catalog

Two Line Element Set (TLE):
1 55465U 23015S   25183.85612281  .00000499  00000-0  52000-4 0  9991
2 55465  43.0030 243.4225 0001335 271.6216  88.4474 15.02529497133170
Source of the keplerian elements: AFSPC